NPAS44 EGFF-EGGD

Flight info

Callsign NPAS44
Flight time 0h 30m
Altitude 5000
Route NPAS OPERATIONS EGGD
Aircraft H135/L-SFG/C

Departure

Time 2026-05-05 13:13
Airport Cardiff International Airport (EGFF)

Arrival

Time 2026-05-05 13:43
Airport Bristol Airport (EGGD)
Time Latitude Longitude Altitude Speed Heading
2026-05-05 13:01 51.39523 -3.34461 220 ft 6 kts 73°
2026-05-05 13:01 51.39532 -3.34408 218 ft 4 kts 70°
2026-05-05 13:01 51.39538 -3.34377 217 ft 2 kts 67°
2026-05-05 13:01 51.39537 -3.34371 216 ft 0 kts 61°
2026-05-05 13:02 51.39538 -3.34361 217 ft 5 kts 49°
2026-05-05 13:02 51.39545 -3.34323 216 ft 6 kts 61°
2026-05-05 13:03 51.39566 -3.34222 218 ft 8 kts 47°
2026-05-05 13:03 51.39609 -3.34210 232 ft 16 kts 336°
2026-05-05 13:03 51.39749 -3.34596 246 ft 55 kts 287°
2026-05-05 13:03 51.39894 -3.34979 304 ft 62 kts 299°
2026-05-05 13:04 51.40291 -3.34974 415 ft 76 kts 55°
2026-05-05 13:04 51.40231 -3.33833 560 ft 85 kts 118°
2026-05-05 13:04 51.40132 -3.33201 603 ft 93 kts 104°
2026-05-05 13:04 51.40101 -3.32157 681 ft 96 kts 99°
2026-05-05 13:05 51.40036 -3.31038 720 ft 105 kts 92°
2026-05-05 13:05 51.39961 -3.29825 676 ft 112 kts 91°
2026-05-05 13:05 51.39953 -3.28548 629 ft 119 kts 85°
2026-05-05 13:05 51.40113 -3.27254 602 ft 117 kts 72°
2026-05-05 13:06 51.40228 -3.25890 498 ft 124 kts 88°
2026-05-05 13:06 51.40053 -3.24595 492 ft 115 kts 104°
2026-05-05 13:06 51.39822 -3.23387 500 ft 113 kts 103°
2026-05-05 13:06 51.39598 -3.22238 569 ft 108 kts 107°
2026-05-05 13:07 51.39377 -3.21087 586 ft 109 kts 105°
2026-05-05 13:07 51.39181 -3.19905 613 ft 108 kts 105°
2026-05-05 13:07 51.38898 -3.18779 588 ft 112 kts 119°
2026-05-05 13:07 51.38282 -3.18499 568 ft 97 kts 209°
2026-05-05 13:08 51.38175 -3.19494 297 ft 109 kts 291°
2026-05-05 13:08 51.38614 -3.20416 299 ft 102 kts 302°
2026-05-05 13:08 51.39114 -3.21219 299 ft 101 kts 306°
2026-05-05 13:08 51.39611 -3.21995 347 ft 100 kts 307°
2026-05-05 13:09 51.40076 -3.22805 406 ft 98 kts 305°
2026-05-05 13:09 51.40459 -3.23705 368 ft 97 kts 276°
2026-05-05 13:09 51.40751 -3.24722 350 ft 102 kts 297°
2026-05-05 13:09 51.41190 -3.25400 524 ft 85 kts 313°
2026-05-05 13:10 51.41689 -3.25713 652 ft 79 kts 335°
2026-05-05 13:10 51.42188 -3.26026 658 ft 76 kts 324°
2026-05-05 13:10 51.42686 -3.25733 572 ft 84 kts 49°
2026-05-05 13:10 51.42566 -3.24894 452 ft 80 kts 141°
2026-05-05 13:11 51.42118 -3.24532 394 ft 63 kts 154°
2026-05-05 13:11 51.41735 -3.24494 317 ft 43 kts 189°
2026-05-05 13:11 51.41523 -3.24630 357 ft 29 kts 202°
2026-05-05 13:11 51.41336 -3.24964 336 ft 56 kts 238°
2026-05-05 13:12 51.41200 -3.25613 440 ft 68 kts 252°
2026-05-05 13:12 51.41081 -3.26386 557 ft 78 kts 258°
2026-05-05 13:12 51.41220 -3.27218 631 ft 87 kts 309°
2026-05-05 13:12 51.41764 -3.27612 710 ft 91 kts 353°
2026-05-05 13:13 51.42239 -3.27059 846 ft 83 kts 75°
2026-05-05 13:13 51.41926 -3.26222 741 ft 95 kts 135°
2026-05-05 13:13 51.41422 -3.25615 724 ft 93 kts 173°
2026-05-05 13:13 51.40943 -3.26182 598 ft 88 kts 248°
2026-05-05 13:14 51.41008 -3.27091 674 ft 82 kts 298°
2026-05-05 13:14 51.41552 -3.27248 633 ft 95 kts 22°
2026-05-05 13:14 51.41941 -3.26398 558 ft 97 kts 78°
2026-05-05 13:14 51.41984 -3.25332 518 ft 96 kts 88°
2026-05-05 13:15 51.42050 -3.24368 477 ft 76 kts 92°
2026-05-05 13:15 51.41774 -3.23736 392 ft 67 kts 160°
2026-05-05 13:15 51.41514 -3.23830 395 ft 6 kts 172°
2026-05-05 13:15 51.41519 -3.23833 318 ft 0 kts 173°
2026-05-05 13:16 51.41518 -3.23838 333 ft 0 kts 213°
2026-05-05 13:16 51.41520 -3.23842 513 ft 1 kts 253°
2026-05-05 13:16 51.41521 -3.23846 700 ft 1 kts 267°
2026-05-05 13:16 51.41545 -3.23962 749 ft 41 kts 280°
2026-05-05 13:17 51.41796 -3.24748 566 ft 99 kts 302°
2026-05-05 13:17 51.42362 -3.25530 523 ft 108 kts 332°
2026-05-05 13:17 51.43093 -3.25400 506 ft 108 kts 32°
2026-05-05 13:17 51.43578 -3.24454 469 ft 114 kts 57°
2026-05-05 13:18 51.43602 -3.23303 547 ft 106 kts 123°
2026-05-05 13:18 51.43113 -3.23472 569 ft 86 kts 268°
2026-05-05 13:18 51.43575 -3.23923 756 ft 79 kts 352°
2026-05-05 13:18 51.43916 -3.23319 718 ft 81 kts 92°
2026-05-05 13:19 51.43652 -3.22854 801 ft 37 kts 224°
2026-05-05 13:19 51.43505 -3.22942 653 ft 15 kts 268°
2026-05-05 13:19 51.43485 -3.23104 530 ft 14 kts 303°
2026-05-05 13:19 51.43477 -3.23219 489 ft 9 kts 324°
2026-05-05 13:20 51.43494 -3.23317 489 ft 8 kts 337°
2026-05-05 13:20 51.43517 -3.23383 573 ft 3 kts
2026-05-05 13:20 51.43544 -3.23380 593 ft 13 kts
2026-05-05 13:20 51.43672 -3.23787 558 ft 70 kts 271°
2026-05-05 13:21 51.43621 -3.24628 628 ft 81 kts 231°
2026-05-05 13:21 51.43051 -3.24710 551 ft 97 kts 170°
2026-05-05 13:21 51.42353 -3.24622 475 ft 103 kts 178°
2026-05-05 13:21 51.41705 -3.24729 507 ft 88 kts 188°
2026-05-05 13:22 51.41094 -3.24780 469 ft 88 kts 178°
2026-05-05 13:22 51.40847 -3.24070 627 ft 86 kts 70°
2026-05-05 13:22 51.41320 -3.23575 699 ft 87 kts 353°
2026-05-05 13:22 51.41793 -3.24041 695 ft 84 kts 294°
2026-05-05 13:23 51.42043 -3.24896 691 ft 84 kts 284°
2026-05-05 13:23 51.42272 -3.25751 685 ft 84 kts 294°
2026-05-05 13:23 51.42791 -3.25939 690 ft 86 kts 37°
2026-05-05 13:23 51.42887 -3.25041 618 ft 88 kts 105°
2026-05-05 13:24 51.42487 -3.24374 516 ft 86 kts 160°
2026-05-05 13:24 51.41956 -3.24454 516 ft 78 kts 214°
2026-05-05 13:24 51.41681 -3.25078 662 ft 66 kts 246°
2026-05-05 13:24 51.41494 -3.25760 643 ft 68 kts 234°
2026-05-05 13:25 51.41062 -3.25908 558 ft 70 kts 167°
2026-05-05 13:25 51.40732 -3.26097 567 ft 51 kts 259°
2026-05-05 13:25 51.40996 -3.26527 481 ft 72 kts 341°
2026-05-05 13:25 51.41473 -3.26610 573 ft 65 kts 352°
2026-05-05 13:26 51.41919 -3.26421 598 ft 76 kts 38°
2026-05-05 13:26 51.42091 -3.25619 547 ft 74 kts 99°
2026-05-05 13:26 51.41852 -3.25100 598 ft 44 kts 136°
2026-05-05 13:26 51.41783 -3.25017 535 ft 3 kts 135°
2026-05-05 13:27 51.41786 -3.25019 525 ft 0 kts 139°
2026-05-05 13:27 51.41785 -3.25020 537 ft 0 kts 137°
2026-05-05 13:28 51.41786 -3.25018 537 ft 0 kts 121°
2026-05-05 13:28 51.41785 -3.25018 538 ft 0 kts 119°
2026-05-05 13:28 51.41785 -3.25019 538 ft 0 kts 119°
2026-05-05 13:29 51.41786 -3.25018 538 ft 0 kts 119°
2026-05-05 13:29 51.41785 -3.25019 539 ft 0 kts 119°
2026-05-05 13:29 51.41784 -3.25020 540 ft 0 kts 119°
2026-05-05 13:30 51.41785 -3.25019 539 ft 0 kts 118°
2026-05-05 13:30 51.41783 -3.25021 540 ft 0 kts 118°
2026-05-05 13:30 51.41785 -3.25019 539 ft 0 kts 118°
2026-05-05 13:31 51.41783 -3.25020 540 ft 0 kts 118°
2026-05-05 13:31 51.41785 -3.25019 539 ft 0 kts 118°
2026-05-05 13:31 51.41784 -3.25020 540 ft 0 kts 119°
2026-05-05 13:31 51.41783 -3.25020 540 ft 1 kts 118°
2026-05-05 13:32 51.41699 -3.24839 875 ft 55 kts 129°
2026-05-05 13:32 51.41309 -3.24044 955 ft 112 kts 124°
2026-05-05 13:32 51.40920 -3.22993 1190 ft 109 kts 108°
2026-05-05 13:32 51.40540 -3.21736 953 ft 135 kts 111°
2026-05-05 13:33 51.40101 -3.20375 858 ft 140 kts 116°
2026-05-05 13:33 51.39571 -3.19017 680 ft 144 kts 117°
2026-05-05 13:33 51.39165 -3.17557 581 ft 142 kts 108°
2026-05-05 13:33 51.38828 -3.16162 680 ft 129 kts 110°
2026-05-05 13:34 51.38484 -3.14767 621 ft 139 kts 109°
2026-05-05 13:34 51.38185 -3.13330 695 ft 136 kts 104°
2026-05-05 13:34 51.37873 -3.11893 651 ft 141 kts 108°
2026-05-05 13:34 51.37526 -3.10475 837 ft 133 kts 108°
2026-05-05 13:35 51.37202 -3.09050 796 ft 137 kts 102°
2026-05-05 13:35 51.36949 -3.07605 856 ft 133 kts 98°
2026-05-05 13:35 51.36743 -3.06134 821 ft 135 kts 97°
2026-05-05 13:35 51.36476 -3.04697 784 ft 138 kts 105°
2026-05-05 13:36 51.36164 -3.03297 893 ft 129 kts 98°
2026-05-05 13:36 51.35867 -3.01949 984 ft 124 kts 109°
2026-05-05 13:36 51.35649 -3.00720 1177 ft 115 kts 89°
2026-05-05 13:36 51.35548 -2.99397 1087 ft 121 kts 88°
2026-05-05 13:37 51.35487 -2.98006 835 ft 126 kts 85°
2026-05-05 13:37 51.35465 -2.96637 691 ft 122 kts 84°
2026-05-05 13:37 51.35367 -2.95381 734 ft 108 kts 93°
2026-05-05 13:37 51.35194 -2.94201 768 ft 109 kts 102°
2026-05-05 13:38 51.34931 -2.93035 819 ft 113 kts 103°
2026-05-05 13:38 51.34836 -2.91857 884 ft 100 kts 69°
2026-05-05 13:38 51.34992 -2.90710 788 ft 104 kts 70°
2026-05-05 13:38 51.35182 -2.89649 876 ft 99 kts 65°
2026-05-05 13:39 51.35441 -2.88581 848 ft 104 kts 56°
2026-05-05 13:39 51.35767 -2.87591 894 ft 96 kts 57°
2026-05-05 13:39 51.36042 -2.86589 868 ft 98 kts 59°
2026-05-05 13:39 51.36268 -2.85597 949 ft 92 kts 65°
2026-05-05 13:40 51.36459 -2.84633 991 ft 92 kts 63°
2026-05-05 13:40 51.36582 -2.83597 963 ft 99 kts 71°
2026-05-05 13:40 51.36728 -2.82527 992 ft 96 kts 66°
2026-05-05 13:40 51.36890 -2.81471 892 ft 94 kts 61°
2026-05-05 13:41 51.37072 -2.80523 857 ft 83 kts 59°
2026-05-05 13:41 51.37254 -2.79580 889 ft 94 kts 65°
2026-05-05 13:41 51.37443 -2.78392 953 ft 122 kts 71°
2026-05-05 13:41 51.37722 -2.77069 919 ft 127 kts 61°
2026-05-05 13:42 51.38018 -2.75870 800 ft 102 kts 61°
2026-05-05 13:42 51.38151 -2.74869 788 ft 79 kts 74°
2026-05-05 13:42 51.38178 -2.74046 799 ft 68 kts 75°
2026-05-05 13:42 51.38199 -2.73345 751 ft 51 kts 76°
2026-05-05 13:43 51.38219 -2.72932 713 ft 38 kts 72°
2026-05-05 13:43 51.38234 -2.72484 663 ft 41 kts 76°
2026-05-05 13:43 51.38249 -2.72093 633 ft 33 kts 71°
2026-05-05 13:43 51.38266 -2.71685 624 ft 43 kts 70°
2026-05-05 13:44 51.38259 -2.71422 615 ft 6 kts 94°
2026-05-05 13:44 51.38219 -2.71352 613 ft 10 kts 146°
2026-05-05 13:44 51.38154 -2.71277 617 ft 9 kts 133°
2026-05-05 13:44 51.38128 -2.71143 625 ft 16 kts 71°
2026-05-05 13:45 51.38089 -2.71041 615 ft 9 kts 77°
2026-05-05 13:45 51.38065 -2.70962 623 ft 8 kts 183°
2026-05-05 13:45 51.38033 -2.70972 625 ft 9 kts 212°
2026-05-05 13:45 51.37938 -2.71005 626 ft 5 kts 168°
2026-05-05 13:46 51.37913 -2.70998 630 ft 3 kts 144°
2026-05-05 13:46 51.37898 -2.71000 609 ft 3 kts 100°
2026-05-05 13:46 51.37897 -2.71000 613 ft 0 kts 96°